SV2BBO-11 Weather Reports


Display with metric or nautical units.
time (UTC)temp
F
wind
direction
speed
MPH
gust
MPH
rain 1hr
in
rain 24hr
in
rain mn
in
humidity
%
barometer
mb
20260504050257 51 0 0.0 0.0 0.00 0.00 0.00 58 1019.7
20260504045757 51 0 0.0 0.0 0.00 0.00 0.00 61 1019.7
20260504044757 50 0 0.0 0.0 0.00 0.00 0.00 62 1019.6
20260504044259 50 0 0.0 1.0 0.00 0.00 0.00 62 1019.6
20260504043258 49 0 0.0 0.0 0.00 0.00 0.00 65 1019.5
20260504042757 49 0 0.0 3.0 0.00 0.00 0.00 66 1019.4
20260504041257 47 0 0.0 0.0 0.00 0.00 0.00 67 1019.5
20260504040757 47 0 0.0 0.0 0.00 0.00 0.00 67 1019.5
20260504040257 47 0 0.0 0.0 0.00 0.00 0.00 67 1019.5
20260504035757 47 0 0.0 0.0 0.00 0.00 0.00 67 1019.4
20260504032303 48 0 0.0 0.0 0.00 0.00 0.00 66 1019.2
20260504015100 48 0 0.0 0.0 0.00 0.00 0.00 62 1019.1
20260504013556 48 0 0.0 2.0 0.00 0.00 0.00 62 1018.8
20260504013056 48 0 0.0 1.0 0.00 0.00 0.00 63 1018.8
20260504012556 48 0 0.0 0.0 0.00 0.00 0.00 63 1018.8
20260504012056 48 0 0.0 0.0 0.00 0.00 0.00 63 1018.7
20260504011556 49 0 0.0 0.0 0.00 0.00 0.00 63 1018.7
20260504010556 49 0 0.0 1.0 0.00 0.00 0.00 64 1018.6
20260504003056 50 0 0.0 1.0 0.00 0.00 0.00 63 1018.5
20260503214739 55 0 0.0 0.0 0.00 0.00 0.00 50 1018.5